| time (UTC) | temp F | wind direction | speed knots | gust knots | rain 1hr in | rain 24hr in | rain mn in | humidity % | barometer mb |
| 20260510060037 | 61 | 172 | 1.7 | 8.7 | 0.00 | 0.03 | 0.02 | 81 | 1002.8 |
| 20260510054546 | 62 | 292 | 1.7 | 7.8 | 0.00 | 0.03 | 0.02 | 80 | 1002.5 |
| 20260510053036 | 62 | 163 | 1.7 | 9.6 | 0.00 | 0.03 | 0.02 | 80 | 1002.4 |
| 20260510051536 | 62 | 207 | 2.6 | 7.0 | 0.00 | 0.03 | 0.02 | 79 | 1002.1 |
| 20260510050035 | 62 | 281 | 2.6 | 9.6 | 0.00 | 0.03 | 0.02 | 79 | 1001.9 |
| 20260510044541 | 63 | 156 | 2.6 | 10.4 | 0.00 | 0.03 | 0.02 | 78 | 1002.0 |
| 20260510043032 | 63 | 159 | 2.6 | 10.4 | 0.00 | 0.03 | 0.02 | 77 | 1001.9 |
| 20260510041538 | 64 | 226 | 2.6 | 11.3 | 0.00 | 0.03 | 0.02 | 75 | 1001.8 |
| 20260510040032 | 64 | 255 | 2.6 | 9.6 | 0.00 | 0.03 | 0.02 | 78 | 1001.6 |
| 20260510034530 | 64 | 297 | 6.1 | 13.0 | 0.00 | 0.03 | 0.02 | 76 | 1001.6 |
| 20260510033028 | 64 | 191 | 3.5 | 13.0 | 0.00 | 0.03 | 0.02 | 78 | 1001.6 |
| 20260510031545 | 65 | 233 | 4.3 | 16.5 | 0.00 | 0.03 | 0.02 | 76 | 1001.8 |
| 20260510030033 | 66 | 211 | 6.1 | 13.0 | 0.00 | 0.03 | 0.02 | 74 | 1001.3 |
| 20260510024525 | 66 | 146 | 6.1 | 16.5 | 0.00 | 0.03 | 0.02 | 74 | 1001.3 |
| 20260510023023 | 66 | 200 | 6.1 | 15.6 | 0.00 | 0.03 | 0.02 | 72 | 1001.2 |
| 20260510021528 | 66 | 212 | 5.2 | 15.6 | 0.00 | 0.03 | 0.02 | 74 | 1001.1 |
| 20260510020019 | 65 | 231 | 4.3 | 17.4 | 0.00 | 0.03 | 0.02 | 77 | 1001.3 |
| 20260510014519 | 64 | 224 | 4.3 | 14.8 | 0.00 | 0.03 | 0.02 | 77 | 1001.3 |
| 20260510013015 | 64 | 173 | 2.6 | 12.2 | 0.00 | 0.03 | 0.02 | 77 | 1001.5 |
| 20260510011515 | 65 | 235 | 4.3 | 9.6 | 0.00 | 0.03 | 0.02 | 77 | 1001.6 |
| 20260510010013 | 65 | 284 | 2.6 | 12.2 | 0.00 | 0.03 | 0.02 | 76 | 1001.6 |
| 20260510004512 | 65 | 311 | 3.5 | 11.3 | 0.00 | 0.03 | 0.02 | 76 | 1001.7 |
| 20260510003008 | 64 | 330 | 3.5 | 12.2 | 0.00 | 0.03 | 0.02 | 77 | 1001.8 |
| 20260510001509 | 64 | 271 | 3.5 | 10.4 | 0.00 | 0.03 | 0.02 | 78 | 1002.0 |
| 20260510000012 | 64 | 128 | 5.2 | 9.6 | 0.00 | 0.03 | 0.02 | 76 | 1002.2 |
| 20260509234509 | 64 | 281 | 4.3 | 8.7 | 0.00 | 0.03 | 0.02 | 76 | 1002.2 |
| 20260509233006 | 64 | 155 | 4.3 | 11.3 | 0.00 | 0.03 | 0.02 | 75 | 1002.5 |
| 20260509231502 | 64 | 304 | 5.2 | 11.3 | 0.00 | 0.03 | 0.02 | 77 | 1002.6 |
| 20260509230100 | 63 | 191 | 1.7 | 7.8 | 0.00 | 0.03 | 0.02 | 79 | 1003.0 |
| 20260509224559 | 63 | 260 | 2.6 | 9.6 | 0.00 | 0.03 | 0.02 | 79 | 1002.8 |
| 20260509223056 | 62 | 293 | 4.3 | 12.2 | 0.00 | 0.03 | 0.02 | 80 | 1002.8 |
| 20260509221553 | 62 | 200 | 1.7 | 11.3 | 0.00 | 0.03 | 0.02 | 81 | 1002.9 |
| 20260509220052 | 61 | 259 | 5.2 | 12.2 | 0.00 | 0.03 | 0.02 | 81 | 1002.9 |
| 20260509214548 | 60 | 152 | 3.5 | 9.6 | 0.00 | 0.03 | 0.02 | 83 | 1002.8 |
| 20260509213046 | 60 | 218 | 2.6 | 7.8 | 0.00 | 0.03 | 0.02 | 84 | 1002.8 |
| 20260509211544 | 59 | 321 | 2.6 | 8.7 | 0.01 | 0.03 | 0.02 | 85 | 1002.9 |
| 20260509210051 | 58 | 141 | 2.6 | 8.7 | 0.01 | 0.03 | 0.02 | 85 | 1002.9 |
| 20260509204538 | 58 | 172 | 2.6 | 6.1 | 0.01 | 0.03 | 0.02 | 87 | 1002.9 |
| 20260509203035 | 57 | 245 | 1.7 | 5.2 | 0.01 | 0.03 | 0.02 | 89 | 1002.9 |
| 20260509201534 | 56 | 160 | 1.7 | 6.1 | 0.00 | 0.02 | 0.02 | 90 | 1002.8 |
| 20260509200033 | 56 | 200 | 1.7 | 6.1 | 0.00 | 0.02 | 0.02 | 91 | 1002.8 |
| 20260509194534 | 55 | 184 | 1.7 | 7.0 | 0.00 | 0.02 | 0.02 | 91 | 1002.6 |
| 20260509193032 | 55 | 215 | 0.9 | 3.5 | 0.00 | 0.02 | 0.02 | 91 | 1002.7 |
| 20260509191530 | 55 | 181 | 0.9 | 5.2 | 0.00 | 0.02 | 0.02 | 90 | 1002.5 |
| 20260509190035 | 55 | 215 | 1.7 | 7.0 | 0.00 | 0.02 | 0.02 | 90 | 1002.4 |
| 20260509184535 | 55 | 211 | 0.9 | 5.2 | 0.00 | 0.02 | 0.02 | 89 | 1002.5 |
| 20260509183027 | 55 | 186 | 0.9 | 3.5 | 0.00 | 0.02 | 0.02 | 90 | 1002.5 |
| 20260509181527 | 55 | 135 | 0.9 | 3.5 | 0.00 | 0.02 | 0.02 | 90 | 1002.4 |
| 20260509180026 | 55 | 177 | 0.9 | 4.3 | 0.00 | 0.02 | 0.02 | 90 | 1002.4 |
| 20260509174525 | 55 | 193 | 0.0 | 3.5 | 0.00 | 0.02 | 0.02 | 90 | 1002.1 |
| 20260509173051 | 55 | 208 | 0.9 | 2.6 | 0.00 | 0.02 | 0.02 | 90 | 1002.1 |
| 20260509171528 | 55 | 174 | 0.0 | 4.3 | 0.00 | 0.02 | 0.02 | 90 | 1002.0 |
| 20260509170021 | 55 | 285 | 0.9 | 3.5 | 0.00 | 0.02 | 0.02 | 90 | 1001.9 |
| 20260509164519 | 55 | 127 | 0.0 | 2.6 | 0.00 | 0.02 | 0.02 | 91 | 1001.9 |
| 20260509163022 | 55 | 208 | 0.0 | 0.9 | 0.00 | 0.02 | 0.02 | 90 | 1001.9 |
| 20260509161516 | 55 | 149 | 0.0 | 3.5 | 0.00 | 0.02 | 0.02 | 91 | 1002.0 |
| 20260509160020 | 55 | 217 | 0.9 | 3.5 | 0.00 | 0.02 | 0.02 | 91 | 1002.0 |
| 20260509154512 | 55 | 205 | 0.0 | 2.6 | 0.00 | 0.06 | 0.02 | 91 | 1002.1 |
| 20260509153016 | 56 | 184 | 0.0 | 3.5 | 0.00 | 0.06 | 0.02 | 91 | 1002.3 |
| 20260509151508 | 56 | 315 | 0.9 | 3.5 | 0.00 | 0.06 | 0.02 | 93 | 1002.4 |
| 20260509150009 | 55 | 188 | 0.0 | 2.6 | 0.00 | 0.06 | 0.02 | 93 | 1002.3 |
| 20260509144506 | 56 | 178 | 0.9 | 2.6 | 0.00 | 0.27 | 0.02 | 94 | 1002.5 |
| 20260509143006 | 56 | 187 | 0.0 | 1.7 | 0.00 | 0.27 | 0.02 | 94 | 1002.3 |
| 20260509141502 | 56 | 184 | 0.0 | 3.5 | 0.00 | 0.27 | 0.02 | 94 | 1002.4 |
| 20260509140001 | 56 | 179 | 0.9 | 2.6 | 0.00 | 0.27 | 0.02 | 94 | 1002.6 |
| 20260509134559 | 56 | 146 | 0.0 | 2.6 | 0.02 | 0.28 | 0.02 | 94 | 1002.7 |
| 20260509133104 | 56 | 248 | 0.0 | 3.5 | 0.02 | 0.28 | 0.02 | 95 | 1002.5 |
| 20260509131604 | 57 | 166 | 0.0 | 0.9 | 0.02 | 0.28 | 0.02 | 95 | 1002.5 |
| 20260509130125 | 57 | 121 | 0.0 | 3.5 | 0.02 | 0.28 | 0.02 | 95 | 1002.8 |
| 20260509124553 | 56 | 150 | 0.0 | 0.0 | 0.00 | 0.27 | 0.00 | 95 | 1002.9 |
| 20260509123118 | 56 | 144 | 0.0 | 0.0 | 0.00 | 0.27 | 0.00 | 95 | 1002.8 |
| 20260509121550 | 56 | 144 | 0.0 | 0.0 | 0.00 | 0.27 | 0.00 | 95 | 1002.9 |
| 20260509120051 | 56 | 144 | 0.0 | 0.9 | 0.00 | 0.27 | 0.00 | 94 | 1002.8 |
| 20260509114618 | 56 | 149 | 0.0 | 0.0 | 0.00 | 0.27 | 0.27 | 94 | 1002.9 |
| 20260509113050 | 57 | 150 | 0.0 | 0.0 | 0.00 | 0.27 | 0.27 | 93 | 1002.7 |
| 20260509111543 | 57 | 149 | 0.0 | 0.0 | 0.00 | 0.27 | 0.27 | 93 | 1002.7 |
| 20260509110051 | 58 | 149 | 0.0 | 0.0 | 0.00 | 0.27 | 0.27 | 93 | 1002.9 |
| 20260509104542 | 59 | 172 | 0.0 | 0.0 | 0.00 | 0.28 | 0.27 | 92 | 1002.8 |
| 20260509103044 | 59 | 172 | 0.0 | 0.0 | 0.00 | 0.28 | 0.27 | 92 | 1003.2 |
| 20260509101553 | 59 | 172 | 0.0 | 0.9 | 0.01 | 0.28 | 0.27 | 91 | 1003.2 |
| 20260509100041 | 60 | 209 | 0.9 | 3.5 | 0.01 | 0.28 | 0.27 | 91 | 1003.5 |
| 20260509094540 | 60 | 104 | 0.0 | 0.9 | 0.01 | 0.28 | 0.27 | 91 | 1003.5 |
| 20260509093039 | 59 | 149 | 0.0 | 1.7 | 0.01 | 0.28 | 0.27 | 91 | 1003.6 |
| 20260509091543 | 60 | 145 | 0.0 | 0.9 | 0.00 | 0.28 | 0.26 | 90 | 1003.6 |
| 20260509090042 | 60 | 145 | 0.0 | 0.9 | 0.00 | 0.28 | 0.26 | 89 | 1003.7 |
| 20260509084538 | 60 | 145 | 0.0 | 2.6 | 0.00 | 0.28 | 0.26 | 88 | 1003.6 |
| 20260509083037 | 61 | 169 | 0.0 | 1.7 | 0.00 | 0.28 | 0.26 | 88 | 1003.2 |
| 20260509081537 | 61 | 135 | 0.0 | 2.6 | 0.00 | 0.28 | 0.26 | 87 | 1003.0 |
| 20260509080043 | 62 | 214 | 0.9 | 3.5 | 0.00 | 0.28 | 0.26 | 87 | 1003.0 |
| 20260509074538 | 61 | 305 | 1.7 | 5.2 | 0.00 | 0.28 | 0.26 | 87 | 1003.0 |
| 20260509073039 | 61 | 212 | 0.9 | 3.5 | 0.00 | 0.28 | 0.26 | 87 | 1003.0 |
| 20260509071534 | 60 | 134 | 0.0 | 2.6 | 0.00 | 0.28 | 0.26 | 87 | 1003.1 |
| 20260509070034 | 61 | 158 | 0.0 | 2.6 | 0.00 | 0.28 | 0.26 | 86 | 1003.1 |
| 20260509064541 | 60 | 183 | 0.9 | 1.7 | 0.00 | 0.28 | 0.26 | 88 | 1003.0 |
| 20260509063036 | 60 | 142 | 0.0 | 0.9 | 0.00 | 0.28 | 0.26 | 88 | 1002.9 |
| 20260509061534 | 60 | 142 | 0.0 | 0.0 | 0.00 | 0.28 | 0.26 | 87 | 1003.0 |